Seattle, WA
on Tuesday, February 26, 2013

Tuesday
Previous Day Next Day
Daily Summary
 ActualAverageRecord
Temperature
Mean Temperature °F 44°F  
Max Temperature 48°F 51°F 67°F (1992)
Min Temperature 39°F 37°F 18°F (1962)
Degree Days
Heating Degree Days 21 21  
Month to date heating degree days 531 564  
Since 1 July heating degree days 3105 3213  
Cooling Degree Days 0 0  
Month to date cooling degree days 0 0  
Year to date cooling degree days 0 0  
Moisture
Dew Point 32°F   
Average Humidity 65    
Maximum Humidity 79    
Minimum Humidity 50    
Precipitation
Precipitation 0.02 in 0.12 in 1.19 in (1965)
Month to date precipitation 1.08 3.25  
Year to date precipitation 5.24 8.82  
Snow
Snow 0.00 in in 2.10 in (2009)
Month to date snowfall 0.0  
Since 1 July snowfall 0.6  
Snow Depth 0.00 in   
Wind
Wind Speed 9 mph   
Max Wind Speed 15 mph   
Max Gust Speed 20 mph   
Visibility 10 miles   
Events Rain   

Key: T is trace of precipitation, MM is missing value
Source: NWS Daily Summary
Time(PST)TemperatureDew PointHumidity Pressure Visibility Wind DirectionWind SpeedGust SpeedPrecipitationEvents Conditions
12:53 AM 39.9°F 33.1°F 77% 30.34 in 10.0 miles South 8.1 mph - N/A   Overcast
1:53 AM 39.9°F 33.1°F 77% 30.35 in 10.0 miles SSE 6.9 mph - N/A   Overcast
2:53 AM 39.9°F 33.1°F 77% 30.35 in 10.0 miles South 8.1 mph - N/A   Mostly Cloudy
3:53 AM 39.2°F 33.8°F 81% 30.33 in 10.0 miles South 6.9 mph - N/A   Mostly Cloudy
4:53 AM 39.9°F 34.0°F 79% 30.36 in 10.0 miles South 4.6 mph - N/A   Overcast
5:53 AM 39.9°F 33.1°F 77% 30.37 in 10.0 miles South 6.9 mph - N/A   Mostly Cloudy
6:53 AM 39.9°F 33.1°F 77% 30.37 in 10.0 miles South 9.2 mph - N/A   Overcast
7:42 AM 41.0°F 32.0°F 70% 30.34 in 10.0 miles South 11.5 mph - N/A   Mostly Cloudy
7:53 AM 41.0°F 30.9°F 67% 30.37 in 10.0 miles South 13.8 mph - N/A   Mostly Cloudy
8:53 AM 42.1°F 33.1°F 70% 30.38 in 9.0 miles South 8.1 mph - 0.00 in Rain Light Rain
9:53 AM 44.1°F 32.0°F 63% 30.37 in 10.0 miles SSW 12.7 mph - 0.01 in   Mostly Cloudy
10:53 AM 46.9°F 33.1°F 59% 30.35 in 10.0 miles South 10.4 mph - N/A   Mostly Cloudy
11:53 AM 46.9°F 30.9°F 54% 30.33 in 10.0 miles South 9.2 mph - N/A   Overcast
12:53 PM 46.9°F 30.0°F 52% 30.31 in 10.0 miles South 9.2 mph - N/A   Overcast
1:53 PM 46.9°F 30.0°F 52% 30.29 in 10.0 miles South 11.5 mph - N/A   Overcast
2:53 PM 48.0°F 30.0°F 50% 30.28 in 10.0 miles South 10.4 mph - N/A   Overcast
3:53 PM 46.9°F 30.9°F 54% 30.28 in 10.0 miles SSW 9.2 mph - N/A   Overcast
4:53 PM 46.9°F 32.0°F 56% 30.26 in 10.0 miles SSW 10.4 mph - N/A   Overcast
5:53 PM 46.0°F 30.9°F 56% 30.25 in 10.0 miles SSW 10.4 mph - N/A   Overcast
6:53 PM 46.0°F 30.9°F 56% 30.25 in 10.0 miles South 5.8 mph - N/A   Overcast
7:53 PM 45.0°F 32.0°F 60% 30.24 in 10.0 miles South 10.4 mph - 0.00 in   Overcast
8:53 PM 44.1°F 33.1°F 65% 30.24 in 10.0 miles South 4.6 mph - 0.00 in Rain Light Rain
9:53 PM 44.1°F 33.1°F 65% 30.23 in 10.0 miles ESE 6.9 mph - 0.00 in   Overcast
10:53 PM 45.0°F 33.1°F 63% 30.22 in 10.0 miles ESE 6.9 mph - N/A   Overcast
11:53 PM 43.0°F 36.0°F 76% 30.22 in 8.0 miles South 5.8 mph - 0.00 in Rain Light Rain
Moon Phase
Feb. 26 Mar. 04 Mar. 11 Mar. 19 Mar. 27
Sunrise:06:54 AM (PST) Moon Rise:07:22 PM (PST)2/26
Sunset:05:50 PM (PST) Moon Set:06:52 AM (PST)2/26

Copyright © 2014 The Weather Underground, Inc.